Flag for U.S.A. Weather past 2 weeks in Carson City, Nevada, U.S.A.

Now
67 °F

Clear.


Feels Like: 67 °F
Forecast: 59 / 86 °F
Wind: 3 mph from West

Location: Reno Tahoe International Airport

Current Time: Jul 31, 2014 at 4:45:12 AM

Latest Report: Jul 31, 2014 at 3:55 AM


Visibility: 10 mi

Pressure: 30.04 "Hg

Humidity: 55%

Dew point: 50 °F

Location of Carson CityLocation

Historic Weather in Carson City — Graph

°F

Carson City temperature yesterday

Maximum temperature yesterday: 89 °F (at 12:55 PM)
Minimum temperature yesterday: 67 °F (at 6:55 AM)
Average temperature yesterday: 77 °F

Past Weeks' High & Low Weather Summary

 TemperatureHumidityPressure
High98 °F (Jul 19, 2:55 PM)93% (Jul 20, 9:55 PM)30.08 "Hg (Jul 20, 9:55 PM)
Low57 °F (Jul 24, 5:55 AM)6% (Jul 26, 2:55 PM)29.78 "Hg (Jul 16, 6:55 PM)
Average78 °F34%29.94 "Hg
* Reported Jul 16 2:55 AM — Jul 31 2:55 AM, Carson City, Weather by CustomWeather, © 2014

Note: Actual official high and low records may vary slightly from our data, if they occured in-between our weather recording intervals... More about our weather records

Advertising

Carson City weather history for previous 24 hours

 ConditionsComfort  
Time TempWeatherWind HumidityBarometerVisibility
2:55 AM
Jul 31
69 °FClear.5 mph49%30.03 "Hg10 mi
1:55 AM69 °FPassing clouds.10 mph51%30.03 "Hg10 mi
12:55 AM71 °FPassing clouds.5 mph45%30.03 "Hg10 mi
11:55 PM
Jul 30
71 °FPassing clouds.No wind44%30.03 "Hg10 mi
10:55 PM73 °FPassing clouds.5 mph43%30.03 "Hg10 mi
9:55 PM77 °FPassing clouds.7 mph33%30.04 "Hg10 mi
8:55 PM77 °FBroken clouds.3 mph36%30.04 "Hg10 mi
7:55 PM79 °FPartly sunny.10 mph31%30.04 "Hg10 mi
6:55 PM80 °FBroken clouds.7 mph29%30.04 "Hg10 mi
5:55 PM80 °FBroken clouds.9 mph31%30.06 "Hg10 mi
4:55 PM81 °FBroken clouds.7 mph27%30.07 "Hg10 mi
3:55 PM81 °FLight rain. Mostly cloudy.12 mph34%30.07 "Hg8 mi
2:55 PM85 °FCloudy.9 mph23%30.02 "Hg10 mi
1:55 PM88 °FMostly cloudy.6 mph20%29.99 "Hg10 mi
12:55 PM89 °FThunderstorms. Broken clouds.7 mph18%29.98 "Hg10 mi
11:55 AM88 °FScattered clouds.No wind19%30.00 "Hg10 mi
10:55 AM85 °FPassing clouds.No wind25%30.02 "Hg10 mi
9:55 AM80 °FPassing clouds.No wind30%30.03 "Hg10 mi
8:55 AM76 °FScattered clouds.No wind32%30.05 "Hg10 mi
7:55 AM71 °FScattered clouds.5 mph41%30.07 "Hg10 mi
6:55 AM67 °FPassing clouds.No wind49%30.06 "Hg10 mi
5:55 AM68 °FPassing clouds.3 mph44%30.04 "Hg10 mi
4:55 AM68 °FPassing clouds.5 mph44%30.02 "Hg10 mi
Weather by CustomWeather, © 2014

See weather overviewHow to use our weather pages